Time,TemperatureF,DewpointF,PressureIn,WindDirection,WindDirectionDegrees,WindSpeedMPH,WindSpeedGustMPH,Humidity,HourlyPrecipIn,Conditions,Clouds,dailyrainin,SoftwareType,DateUTC
2013-01-25 00:00:00,23.5,3.8,30.48,NNE,32,0.0,1.0,42,0.00,,---,0.00,VWS V14.01,2013-01-25 05:00:00,
2013-01-25 00:01:00,23.5,3.8,30.48,NNE,32,0.0,1.0,42,0.00,,---,0.00,VWS V14.01,2013-01-25 05:01:00,
2013-01-25 00:03:00,23.5,4.3,30.48,NNE,32,0.0,0.0,43,0.00,,---,0.00,VWS V14.01,2013-01-25 05:03:00,
2013-01-25 00:08:00,23.5,5.3,30.48,NNE,32,0.0,0.0,45,0.00,,---,0.00,VWS V14.01,2013-01-25 05:08:00,
2013-01-25 00:13:00,23.3,5.1,30.48,NNE,32,0.0,0.0,45,0.00,,---,0.00,VWS V14.01,2013-01-25 05:13:00,
2013-01-25 00:18:00,23.2,3.5,30.47,East,90,0.0,0.0,42,0.00,,---,0.00,VWS V14.01,2013-01-25 05:18:00,
2013-01-25 00:23:00,23.2,3.5,30.47,East,90,0.0,0.0,42,0.00,,---,0.00,VWS V14.01,2013-01-25 05:23:00,
2013-01-25 00:28:00,23.3,4.6,30.47,East,92,0.0,0.0,44,0.00,,---,0.00,VWS V14.01,2013-01-25 05:28:00,
2013-01-25 00:33:00,23.2,4.5,30.46,East,90,0.0,0.0,44,0.00,,---,0.00,VWS V14.01,2013-01-25 05:33:00,
2013-01-25 00:38:00,23.2,4.0,30.46,NNE,32,0.0,0.0,43,0.00,,---,0.00,VWS V14.01,2013-01-25 05:38:00,
2013-01-25 00:43:00,23.2,4.0,30.46,NNE,32,0.0,0.0,43,0.00,,---,0.00,VWS V14.01,2013-01-25 05:43:00,
2013-01-25 00:48:00,23.2,4.5,30.46,NNE,32,0.0,0.0,44,0.00,,---,0.00,VWS V14.01,2013-01-25 05:48:00,
2013-01-25 00:53:00,23.0,4.8,30.46,NNE,32,0.0,0.0,45,0.00,,---,0.00,VWS V14.01,2013-01-25 05:53:00,
2013-01-25 00:58:00,23.0,4.3,30.46,NNE,32,0.0,0.0,44,0.00,,---,0.00,VWS V14.01,2013-01-25 05:58:00,
2013-01-25 01:03:00,23.0,4.3,30.46,NNE,32,0.0,0.0,44,0.00,,---,0.00,VWS V14.01,2013-01-25 06:03:00,
2013-01-25 01:08:00,23.0,4.3,30.46,NE,47,0.0,0.0,44,0.00,,---,0.00,VWS V14.01,2013-01-25 06:08:00,
2013-01-25 01:13:00,22.9,4.3,30.46,NE,47,0.0,0.0,44,0.00,,---,0.00,VWS V14.01,2013-01-25 06:13:00,
2013-01-25 01:18:00,22.9,2.7,30.48,NE,38,0.0,0.0,41,0.00,,---,0.00,VWS V14.01,2013-01-25 06:18:00,
2013-01-25 01:23:00,22.9,3.2,30.48,NE,40,0.0,0.0,42,0.00,,---,0.00,VWS V14.01,2013-01-25 06:23:00,
2013-01-25 01:28:00,22.9,3.8,30.48,NE,40,0.0,0.0,43,0.00,,---,0.00,VWS V14.01,2013-01-25 06:28:00,
2013-01-25 01:33:00,22.7,4.1,30.48,NNE,30,0.0,0.0,44,0.00,,---,0.00,VWS V14.01,2013-01-25 06:33:00,
2013-01-25 01:38:00,22.7,3.6,30.48,NNE,30,0.0,0.0,43,0.00,,---,0.00,VWS V14.01,2013-01-25 06:38:00,
2013-01-25 01:43:00,22.7,4.6,30.48,NNE,21,0.0,0.0,45,0.00,,---,0.00,VWS V14.01,2013-01-25 06:43:00,
2013-01-25 01:48:00,22.7,4.6,30.49,NNE,21,0.0,0.0,45,0.00,,---,0.00,VWS V14.01,2013-01-25 06:48:00,
2013-01-25 01:53:00,22.7,4.1,30.49,NNE,21,0.0,0.0,44,0.00,,---,0.00,VWS V14.01,2013-01-25 06:53:00,
2013-01-25 01:58:00,22.7,4.6,30.49,NNE,21,0.0,0.0,45,0.00,,---,0.00,VWS V14.01,2013-01-25 06:58:00,
2013-01-25 02:03:00,22.7,3.6,30.49,NNE,21,0.0,0.0,43,0.00,,---,0.00,VWS V14.01,2013-01-25 07:03:00,
2013-01-25 02:08:00,22.5,4.4,30.49,NNE,21,0.0,0.0,45,0.00,,---,0.00,VWS V14.01,2013-01-25 07:08:00,
2013-01-25 02:13:00,22.5,4.4,30.49,NNE,21,0.0,0.0,45,0.00,,---,0.00,VWS V14.01,2013-01-25 07:13:00,
2013-01-25 02:18:00,22.4,4.3,30.50,NNE,21,0.0,0.0,45,0.00,,---,0.00,VWS V14.01,2013-01-25 07:18:00,
2013-01-25 02:23:00,22.2,4.1,30.50,NNE,21,0.0,0.0,45,0.00,,---,0.00,VWS V14.01,2013-01-25 07:23:00,
2013-01-25 02:28:00,22.1,4.0,30.50,NNE,21,0.0,0.0,45,0.00,,---,0.00,VWS V14.01,2013-01-25 07:28:00,
2013-01-25 02:33:00,21.9,4.3,30.51,NNE,21,0.0,0.0,46,0.00,,---,0.00,VWS V14.01,2013-01-25 07:33:00,
2013-01-25 02:38:00,21.9,5.2,30.51,NNE,21,0.0,0.0,48,0.00,,---,0.00,VWS V14.01,2013-01-25 07:38:00,
2013-01-25 02:43:00,21.8,5.6,30.51,NNE,21,0.0,0.0,49,0.00,,---,0.00,VWS V14.01,2013-01-25 07:43:00,
2013-01-25 02:48:00,21.8,5.1,30.50,NNE,21,0.0,0.0,48,0.00,,---,0.00,VWS V14.01,2013-01-25 07:48:00,
2013-01-25 02:53:00,21.6,4.5,30.50,NNE,21,0.0,0.0,47,0.00,,---,0.00,VWS V14.01,2013-01-25 07:53:00,
2013-01-25 02:58:00,21.6,5.4,30.50,NNE,21,0.0,0.0,49,0.00,,---,0.00,VWS V14.01,2013-01-25 07:58:00,
2013-01-25 03:03:00,21.4,5.2,30.49,NNE,21,0.0,0.0,49,0.00,,---,0.00,VWS V14.01,2013-01-25 08:03:00,
2013-01-25 03:08:00,21.4,5.2,30.49,NNE,21,0.0,0.0,49,0.00,,---,0.00,VWS V14.01,2013-01-25 08:08:00,
2013-01-25 03:13:00,21.4,5.2,30.49,NNE,21,0.0,0.0,49,0.00,,---,0.00,VWS V14.01,2013-01-25 08:13:00,
2013-01-25 03:18:00,21.3,5.1,30.50,NNE,21,0.0,0.0,49,0.00,,---,0.00,VWS V14.01,2013-01-25 08:18:00,
2013-01-25 03:23:00,21.3,5.1,30.50,NNE,21,0.0,0.0,49,0.00,,---,0.00,VWS V14.01,2013-01-25 08:23:00,
2013-01-25 03:28:00,21.3,5.6,30.50,NNE,21,0.0,0.0,50,0.00,,---,0.00,VWS V14.01,2013-01-25 08:28:00,
2013-01-25 03:33:00,21.3,5.1,30.49,NNE,21,0.0,0.0,49,0.00,,---,0.00,VWS V14.01,2013-01-25 08:33:00,
2013-01-25 03:38:00,21.3,5.6,30.49,NNE,21,0.0,0.0,50,0.00,,---,0.00,VWS V14.01,2013-01-25 08:38:00,
2013-01-25 03:43:00,21.4,5.7,30.49,NNE,21,0.0,0.0,50,0.00,,---,0.00,VWS V14.01,2013-01-25 08:43:00,
2013-01-25 03:48:00,21.6,6.3,30.48,NNE,21,0.0,0.0,51,0.00,,---,0.00,VWS V14.01,2013-01-25 08:48:00,
2013-01-25 03:53:00,21.6,6.3,30.48,NNE,21,0.0,0.0,51,0.00,,---,0.00,VWS V14.01,2013-01-25 08:53:00,
2013-01-25 03:58:00,21.8,6.0,30.48,NNE,21,0.0,0.0,50,0.00,,---,0.00,VWS V14.01,2013-01-25 08:58:00,
2013-01-25 04:03:00,21.6,5.0,30.48,NNE,21,0.0,0.0,48,0.00,,---,0.00,VWS V14.01,2013-01-25 09:03:00,
2013-01-25 04:08:00,21.4,5.2,30.48,NNE,21,0.0,0.0,49,0.00,,---,0.00,VWS V14.01,2013-01-25 09:08:00,
2013-01-25 04:13:00,21.4,5.7,30.48,NNE,21,0.0,0.0,50,0.00,,---,0.00,VWS V14.01,2013-01-25 09:13:00,
2013-01-25 04:18:00,21.4,6.1,30.47,NNE,21,0.0,0.0,51,0.00,,---,0.00,VWS V14.01,2013-01-25 09:18:00,
2013-01-25 04:23:00,21.3,6.0,30.47,NNE,21,0.0,0.0,51,0.00,,---,0.00,VWS V14.01,2013-01-25 09:23:00,
2013-01-25 04:28:00,21.4,6.5,30.47,NNE,21,0.0,0.0,52,0.00,,---,0.00,VWS V14.01,2013-01-25 09:28:00,
2013-01-25 04:33:00,21.3,6.4,30.48,NNE,21,0.0,0.0,52,0.00,,---,0.00,VWS V14.01,2013-01-25 09:33:00,
2013-01-25 04:38:00,21.3,6.8,30.48,NNE,21,0.0,0.0,53,0.00,,---,0.00,VWS V14.01,2013-01-25 09:38:00,
2013-01-25 04:43:00,21.1,6.2,30.48,NNE,21,0.0,0.0,52,0.00,,---,0.00,VWS V14.01,2013-01-25 09:43:00,
2013-01-25 04:48:00,21.1,6.7,30.47,NNE,21,0.0,0.0,53,0.00,,---,0.00,VWS V14.01,2013-01-25 09:48:00,
2013-01-25 04:53:00,21.1,6.7,30.47,NNE,21,0.0,0.0,53,0.00,,---,0.00,VWS V14.01,2013-01-25 09:53:00,
2013-01-25 04:58:00,21.4,6.9,30.47,NNE,21,0.0,0.0,53,0.00,,---,0.00,VWS V14.01,2013-01-25 09:58:00,
2013-01-25 05:03:00,21.4,7.3,30.48,NNE,21,0.0,0.0,54,0.00,,---,0.00,VWS V14.01,2013-01-25 10:03:00,
2013-01-25 05:08:00,21.6,7.1,30.48,NNE,21,0.0,0.0,53,0.00,,---,0.00,VWS V14.01,2013-01-25 10:08:00,
2013-01-25 05:13:00,21.6,6.7,30.48,NNE,21,0.0,0.0,52,0.00,,---,0.00,VWS V14.01,2013-01-25 10:13:00,
2013-01-25 05:18:00,21.8,6.5,30.47,NNE,21,0.0,0.0,51,0.00,,---,0.00,VWS V14.01,2013-01-25 10:18:00,
2013-01-25 05:23:00,21.8,7.7,30.47,NNE,21,0.0,0.0,54,0.00,,---,0.00,VWS V14.01,2013-01-25 10:23:00,
2013-01-25 05:28:00,21.8,6.5,30.47,NNE,21,0.0,0.0,51,0.00,,---,0.00,VWS V14.01,2013-01-25 10:28:00,
2013-01-25 05:33:00,21.8,7.7,30.48,NNE,21,0.0,0.0,54,0.00,,---,0.00,VWS V14.01,2013-01-25 10:33:00,
2013-01-25 05:38:00,21.9,6.1,30.48,NNE,21,0.0,0.0,50,0.00,,---,0.00,VWS V14.01,2013-01-25 10:38:00,
2013-01-25 05:43:00,21.9,7.0,30.48,NNE,21,0.0,0.0,52,0.00,,---,0.00,VWS V14.01,2013-01-25 10:43:00,
2013-01-25 05:48:00,22.1,6.8,30.48,NNE,21,0.0,0.0,51,0.00,,---,0.00,VWS V14.01,2013-01-25 10:48:00,
2013-01-25 05:53:00,22.1,7.2,30.48,NNE,21,0.0,0.0,52,0.00,,---,0.00,VWS V14.01,2013-01-25 10:53:00,
2013-01-25 05:58:00,22.1,7.6,30.48,NNE,21,0.0,0.0,53,0.00,,---,0.00,VWS V14.01,2013-01-25 10:58:00,
2013-01-25 06:03:00,22.2,7.3,30.48,NNE,21,0.0,0.0,52,0.00,,---,0.00,VWS V14.01,2013-01-25 11:03:00,
2013-01-25 06:08:00,22.2,7.3,30.48,NNE,21,0.0,0.0,52,0.00,,---,0.00,VWS V14.01,2013-01-25 11:08:00,
2013-01-25 06:13:00,22.2,7.7,30.48,NNE,21,0.0,0.0,53,0.00,,---,0.00,VWS V14.01,2013-01-25 11:13:00,
2013-01-25 06:18:00,22.2,7.3,30.47,NNE,21,0.0,0.0,52,0.00,,---,0.00,VWS V14.01,2013-01-25 11:18:00,
2013-01-25 06:23:00,22.2,6.8,30.47,NNE,21,0.0,0.0,51,0.00,,---,0.00,VWS V14.01,2013-01-25 11:23:00,
2013-01-25 06:28:00,22.2,7.3,30.47,NNE,21,0.0,0.0,52,0.00,,---,0.00,VWS V14.01,2013-01-25 11:28:00,
2013-01-25 06:33:00,22.4,7.9,30.47,NNE,21,0.0,0.0,53,0.00,,---,0.00,VWS V14.01,2013-01-25 11:33:00,
2013-01-25 06:38:00,22.4,7.4,30.47,NNE,21,0.0,0.0,52,0.00,,---,0.00,VWS V14.01,2013-01-25 11:38:00,
2013-01-25 06:43:00,22.5,8.0,30.47,NNE,21,0.0,0.0,53,0.00,,---,0.00,VWS V14.01,2013-01-25 11:43:00,
2013-01-25 06:48:00,22.5,7.1,30.47,NNE,21,0.0,0.0,51,0.00,,---,0.00,VWS V14.01,2013-01-25 11:48:00,
2013-01-25 06:53:00,22.5,6.7,30.47,NNE,21,0.0,0.0,50,0.00,,---,0.00,VWS V14.01,2013-01-25 11:53:00,
2013-01-25 06:58:00,22.7,6.4,30.47,NNE,21,0.0,0.0,49,0.00,,---,0.00,VWS V14.01,2013-01-25 11:58:00,
2013-01-25 07:03:00,22.7,6.4,30.47,NNE,21,0.0,0.0,49,0.00,,---,0.00,VWS V14.01,2013-01-25 12:03:00,
2013-01-25 07:08:00,22.7,6.9,30.47,NNE,21,0.0,0.0,50,0.00,,---,0.00,VWS V14.01,2013-01-25 12:08:00,
2013-01-25 07:13:00,22.9,5.7,30.47,NNE,21,0.0,0.0,47,0.00,,---,0.00,VWS V14.01,2013-01-25 12:13:00,
2013-01-25 07:18:00,22.9,5.7,30.47,NNE,25,0.0,0.0,47,0.00,,---,0.00,VWS V14.01,2013-01-25 12:18:00,
2013-01-25 07:23:00,22.9,5.2,30.47,NNE,25,0.0,0.0,46,0.00,,---,0.00,VWS V14.01,2013-01-25 12:23:00,
2013-01-25 07:28:00,22.9,5.2,30.47,NNE,25,0.0,0.0,46,0.00,,---,0.00,VWS V14.01,2013-01-25 12:28:00,
2013-01-25 07:33:00,22.9,5.2,30.46,NNE,25,0.0,0.0,46,0.00,,---,0.00,VWS V14.01,2013-01-25 12:33:00,
2013-01-25 07:38:00,22.9,4.3,30.46,ESE,121,0.0,0.0,44,0.00,,---,0.00,VWS V14.01,2013-01-25 12:38:00,
2013-01-25 07:43:00,22.9,5.7,30.46,ESE,121,0.0,0.0,47,0.00,,---,0.00,VWS V14.01,2013-01-25 12:43:00,
2013-01-25 07:48:00,23.0,4.8,30.46,ESE,121,0.0,0.0,45,0.00,,---,0.00,VWS V14.01,2013-01-25 12:48:00,
2013-01-25 07:53:00,23.0,4.8,30.46,ESE,121,0.0,0.0,45,0.00,,---,0.00,VWS V14.01,2013-01-25 12:53:00,
2013-01-25 07:58:00,23.0,4.3,30.46,ESE,121,0.0,0.0,44,0.00,,---,0.00,VWS V14.01,2013-01-25 12:58:00,
2013-01-25 08:03:00,23.0,3.8,30.44,SE,140,0.0,0.0,43,0.00,,---,0.00,VWS V14.01,2013-01-25 13:03:00,
2013-01-25 08:08:00,23.2,4.0,30.44,East,85,0.0,2.0,43,0.00,,---,0.00,VWS V14.01,2013-01-25 13:08:00,
2013-01-25 08:13:00,23.2,4.0,30.44,East,96,0.0,0.0,43,0.00,,---,0.00,VWS V14.01,2013-01-25 13:13:00,
2013-01-25 08:18:00,23.3,3.1,30.43,ESE,112,0.0,0.0,41,0.00,,---,0.00,VWS V14.01,2013-01-25 13:18:00,
2013-01-25 08:23:00,23.2,2.5,30.43,ESE,116,0.0,0.0,40,0.00,,---,0.00,VWS V14.01,2013-01-25 13:23:00,
2013-01-25 08:28:00,23.3,3.1,30.43,ESE,113,0.0,0.0,41,0.00,,---,0.00,VWS V14.01,2013-01-25 13:28:00,
2013-01-25 08:33:00,23.5,3.3,30.43,ESE,119,0.0,0.0,41,0.00,,---,0.00,VWS V14.01,2013-01-25 13:33:00,
2013-01-25 08:38:00,23.6,2.8,30.43,ESE,117,0.0,0.0,40,0.00,,---,0.00,VWS V14.01,2013-01-25 13:38:00,
2013-01-25 08:43:00,23.8,3.5,30.43,South,174,0.0,0.0,41,0.00,,---,0.00,VWS V14.01,2013-01-25 13:43:00,
2013-01-25 08:48:00,23.8,2.5,30.42,ESE,110,0.0,0.0,39,0.00,,---,0.00,VWS V14.01,2013-01-25 13:48:00,
2013-01-25 08:53:00,23.8,1.9,30.42,ESE,107,0.0,2.0,38,0.00,,---,0.00,VWS V14.01,2013-01-25 13:53:00,
2013-01-25 08:58:00,23.9,2.6,30.42,SE,131,0.0,0.0,39,0.00,,---,0.00,VWS V14.01,2013-01-25 13:58:00,
2013-01-25 09:03:00,24.1,2.7,30.44,SE,131,0.0,0.0,39,0.00,,---,0.00,VWS V14.01,2013-01-25 14:03:00,
2013-01-25 09:08:00,24.2,3.9,30.44,ESE,123,0.0,0.0,41,0.00,,---,0.00,VWS V14.01,2013-01-25 14:08:00,
2013-01-25 09:13:00,24.2,2.3,30.44,NE,48,0.0,0.0,38,0.00,,---,0.00,VWS V14.01,2013-01-25 14:13:00,
2013-01-25 09:18:00,24.2,2.8,30.43,ESE,117,0.0,0.0,39,0.00,,---,0.00,VWS V14.01,2013-01-25 14:18:00,
2013-01-25 09:23:00,24.2,2.8,30.43,ESE,121,0.0,2.0,39,0.00,,---,0.00,VWS V14.01,2013-01-25 14:23:00,
2013-01-25 09:28:00,24.4,2.5,30.43,East,79,0.0,0.0,38,0.00,,---,0.00,VWS V14.01,2013-01-25 14:28:00,
2013-01-25 09:33:00,24.4,2.5,30.44,SE,136,0.0,0.0,38,0.00,,---,0.00,VWS V14.01,2013-01-25 14:33:00,
2013-01-25 09:38:00,24.5,3.1,30.44,SE,130,0.0,0.0,39,0.00,,---,0.00,VWS V14.01,2013-01-25 14:38:00,
2013-01-25 09:43:00,24.7,3.8,30.44,SE,130,0.0,0.0,40,0.00,,---,0.00,VWS V14.01,2013-01-25 14:43:00,
2013-01-25 09:48:00,24.7,2.7,30.45,SE,136,0.0,0.0,38,0.00,,---,0.00,VWS V14.01,2013-01-25 14:48:00,
2013-01-25 09:53:00,24.7,2.7,30.45,SE,134,0.0,0.0,38,0.00,,---,0.00,VWS V14.01,2013-01-25 14:53:00,
2013-01-25 09:58:00,24.7,2.7,30.45,SE,134,0.0,0.0,38,0.00,,---,0.00,VWS V14.01,2013-01-25 14:58:00,
2013-01-25 10:03:00,24.7,2.7,30.45,SE,134,0.0,0.0,38,0.00,,---,0.00,VWS V14.01,2013-01-25 15:03:00,
2013-01-25 10:08:00,24.7,3.3,30.45,SE,134,0.0,0.0,39,0.00,,---,0.00,VWS V14.01,2013-01-25 15:08:00,
2013-01-25 10:13:00,24.8,2.8,30.45,SE,134,0.0,0.0,38,0.00,,---,0.00,VWS V14.01,2013-01-25 15:13:00,
2013-01-25 10:18:00,24.8,2.8,30.43,SSW,212,0.0,0.0,38,0.00,,---,0.00,VWS V14.01,2013-01-25 15:18:00,
2013-01-25 10:23:00,25.0,2.4,30.43,ESE,110,0.0,0.0,37,0.00,,---,0.00,VWS V14.01,2013-01-25 15:23:00,
2013-01-25 10:28:00,25.0,2.4,30.43,ESE,110,0.0,0.0,37,0.00,,---,0.00,VWS V14.01,2013-01-25 15:28:00,
2013-01-25 10:33:00,25.1,3.1,30.42,ESE,112,0.0,0.0,38,0.00,,---,0.00,VWS V14.01,2013-01-25 15:33:00,
2013-01-25 10:38:00,25.3,2.7,30.42,SW,220,0.0,0.0,37,0.00,,---,0.00,VWS V14.01,2013-01-25 15:38:00,
2013-01-25 10:43:00,25.4,3.3,30.42,SSW,196,0.0,0.0,38,0.00,,---,0.00,VWS V14.01,2013-01-25 15:43:00,
2013-01-25 10:48:00,25.6,3.5,30.42,SSW,196,0.0,0.0,38,0.00,,---,0.00,VWS V14.01,2013-01-25 15:48:00,
2013-01-25 10:53:00,25.6,2.4,30.42,South,188,0.0,0.0,36,0.00,,---,0.00,VWS V14.01,2013-01-25 15:53:00,
2013-01-25 10:58:00,25.6,3.0,30.42,SSE,165,0.0,0.0,37,0.00,,---,0.00,VWS V14.01,2013-01-25 15:58:00,
2013-01-25 11:03:00,25.6,3.5,30.38,SE,124,0.0,0.0,38,0.00,,---,0.00,VWS V14.01,2013-01-25 16:03:00,
2013-01-25 11:08:00,25.6,3.5,30.38,ESE,119,0.0,0.0,38,0.00,,---,0.00,VWS V14.01,2013-01-25 16:08:00,
2013-01-25 11:13:00,25.7,4.2,30.38,ESE,119,0.0,0.0,39,0.00,,---,0.00,VWS V14.01,2013-01-25 16:13:00,
2013-01-25 11:18:00,25.7,3.0,30.38,SE,130,0.0,0.0,37,0.00,,---,0.00,VWS V14.01,2013-01-25 16:18:00,
2013-01-25 11:23:00,25.7,4.2,30.38,SE,130,0.0,0.0,39,0.00,,---,0.00,VWS V14.01,2013-01-25 16:23:00,
2013-01-25 11:28:00,25.6,4.6,30.38,ESE,102,0.0,0.0,40,0.00,,---,0.00,VWS V14.01,2013-01-25 16:28:00,
2013-01-25 11:33:00,25.4,7.0,30.37,SE,133,0.0,0.0,45,0.00,,---,0.00,VWS V14.01,2013-01-25 16:33:00,
2013-01-25 11:38:00,25.1,8.6,30.37,SSE,157,0.0,0.0,49,0.00,,---,0.00,VWS V14.01,2013-01-25 16:38:00,
2013-01-25 11:43:00,24.7,10.0,30.37,SSW,212,0.0,0.0,53,0.00,,---,0.00,VWS V14.01,2013-01-25 16:43:00,
2013-01-25 11:48:00,24.4,12.5,30.36,SE,124,0.0,0.0,60,0.00,,---,0.00,VWS V14.01,2013-01-25 16:48:00,
2013-01-25 11:53:00,24.1,12.6,30.36,SSW,203,0.0,0.0,61,0.00,,---,0.00,VWS V14.01,2013-01-25 16:53:00,
2013-01-25 11:58:00,23.5,12.4,30.36,SSW,198,0.0,0.0,62,0.00,,---,0.00,VWS V14.01,2013-01-25 16:58:00,
2013-01-25 12:03:00,23.5,13.1,30.35,SSE,154,0.0,0.0,64,0.00,,---,0.00,VWS V14.01,2013-01-25 17:03:00,
2013-01-25 12:08:00,23.5,13.8,30.35,SE,124,0.0,0.0,66,0.00,,---,0.00,VWS V14.01,2013-01-25 17:08:00,
2013-01-25 12:13:00,23.5,14.2,30.35,ESE,119,0.0,0.0,67,0.00,,---,0.00,VWS V14.01,2013-01-25 17:13:00,
2013-01-25 12:18:00,23.5,14.8,30.33,ESE,119,0.0,0.0,69,0.00,,---,0.00,VWS V14.01,2013-01-25 17:18:00,
2013-01-25 12:23:00,23.3,14.3,30.33,SSE,162,0.0,0.0,68,0.00,,---,0.00,VWS V14.01,2013-01-25 17:23:00,
2013-01-25 12:28:00,23.5,15.2,30.33,ESE,112,0.0,0.0,70,0.00,,---,0.00,VWS V14.01,2013-01-25 17:28:00,
2013-01-25 12:33:00,23.6,14.9,30.30,ESE,110,0.0,0.0,69,0.00,,---,0.00,VWS V14.01,2013-01-25 17:33:00,
2013-01-25 12:38:00,23.6,14.6,30.30,ESE,110,0.0,0.0,68,0.00,,---,0.00,VWS V14.01,2013-01-25 17:38:00,
2013-01-25 12:43:00,23.8,14.8,30.30,ESE,113,0.0,0.0,68,0.00,,---,0.00,VWS V14.01,2013-01-25 17:43:00,
2013-01-25 12:48:00,23.9,15.6,30.30,ESE,113,0.0,0.0,70,0.00,,---,0.00,VWS V14.01,2013-01-25 17:48:00,
2013-01-25 12:53:00,23.9,14.6,30.30,ESE,113,0.0,0.0,67,0.00,,---,0.00,VWS V14.01,2013-01-25 17:53:00,
2013-01-25 12:58:00,23.9,14.9,30.30,ESE,113,0.0,0.0,68,0.00,,---,0.00,VWS V14.01,2013-01-25 17:58:00,
2013-01-25 13:03:00,24.1,15.4,30.27,ESE,113,0.0,0.0,69,0.00,,---,0.00,VWS V14.01,2013-01-25 18:03:00,
2013-01-25 13:08:00,24.1,15.4,30.27,ESE,113,0.0,0.0,69,0.00,,---,0.00,VWS V14.01,2013-01-25 18:08:00,
2013-01-25 13:13:00,24.1,14.7,30.27,ESE,113,0.0,0.0,67,0.00,,---,0.00,VWS V14.01,2013-01-25 18:13:00,
2013-01-25 13:18:00,24.1,15.8,30.25,ESE,113,0.0,0.0,70,0.00,,---,0.00,VWS V14.01,2013-01-25 18:18:00,
2013-01-25 13:23:00,24.2,14.8,30.25,ESE,113,0.0,0.0,67,0.00,,---,0.00,VWS V14.01,2013-01-25 18:23:00,
2013-01-25 13:28:00,24.1,14.4,30.25,ESE,116,0.0,0.0,66,0.00,,---,0.00,VWS V14.01,2013-01-25 18:28:00,
2013-01-25 13:33:00,24.2,14.1,30.24,ESE,116,0.0,0.0,65,0.00,,---,0.00,VWS V14.01,2013-01-25 18:33:00,
2013-01-25 13:38:00,24.5,15.1,30.24,ESE,116,0.0,0.0,67,0.00,,---,0.00,VWS V14.01,2013-01-25 18:38:00,
2013-01-25 13:43:00,24.5,14.1,30.24,ESE,114,0.0,0.0,64,0.00,,---,0.00,VWS V14.01,2013-01-25 18:43:00,
2013-01-25 13:48:00,24.5,13.7,30.22,SSE,151,0.0,0.0,63,0.00,,---,0.00,VWS V14.01,2013-01-25 18:48:00,
2013-01-25 13:53:00,24.4,13.6,30.22,SSE,157,0.0,0.0,63,0.00,,---,0.00,VWS V14.01,2013-01-25 18:53:00,
2013-01-25 13:58:00,24.5,14.1,30.22,SSE,155,0.0,0.0,64,0.00,,---,0.00,VWS V14.01,2013-01-25 18:58:00,
2013-01-25 14:03:00,24.7,16.3,30.23,SSE,155,0.0,0.0,70,0.00,,---,0.00,VWS V14.01,2013-01-25 19:03:00,
2013-01-25 14:08:00,24.7,16.6,30.23,SSE,155,0.0,0.0,71,0.00,,---,0.00,VWS V14.01,2013-01-25 19:08:00,
2013-01-25 14:13:00,24.7,17.3,30.23,SSE,155,0.0,0.0,73,0.00,,---,0.00,VWS V14.01,2013-01-25 19:13:00,
2013-01-25 14:18:00,24.5,17.7,30.24,SSE,155,0.0,0.0,75,0.00,,---,0.00,VWS V14.01,2013-01-25 19:18:00,
2013-01-25 14:23:00,24.5,18.3,30.24,SSE,155,0.0,0.0,77,0.00,,---,0.00,VWS V14.01,2013-01-25 19:23:00,
2013-01-25 14:28:00,24.5,18.6,30.24,SSE,155,0.0,0.0,78,0.00,,---,0.00,VWS V14.01,2013-01-25 19:28:00,
2013-01-25 14:33:00,24.5,18.6,30.22,SSE,155,0.0,0.0,78,0.00,,---,0.00,VWS V14.01,2013-01-25 19:33:00,
2013-01-25 14:38:00,24.5,17.7,30.22,SSE,155,0.0,0.0,75,0.00,,---,0.00,VWS V14.01,2013-01-25 19:38:00,
2013-01-25 14:43:00,24.5,18.3,30.22,SSE,151,0.0,0.0,77,0.00,,---,0.00,VWS V14.01,2013-01-25 19:43:00,
2013-01-25 14:48:00,24.8,19.8,30.21,SSE,151,0.0,0.0,81,0.00,,---,0.00,VWS V14.01,2013-01-25 19:48:00,
2013-01-25 14:53:00,24.8,19.8,30.21,SE,131,0.0,0.0,81,0.00,,---,0.00,VWS V14.01,2013-01-25 19:53:00,
2013-01-25 14:58:00,24.7,19.4,30.21,ESE,117,0.0,0.0,80,0.00,,---,0.00,VWS V14.01,2013-01-25 19:58:00,
2013-01-25 15:02:00,24.7,19.4,30.20,ESE,120,0.0,0.0,80,0.00,,---,0.00,VWS V14.01,2013-01-25 20:02:00,
2013-01-25 15:07:00,24.8,19.5,30.20,ESE,119,0.0,0.0,80,0.01,,---,0.01,VWS V14.01,2013-01-25 20:07:00,
2013-01-25 15:12:00,24.8,20.1,30.20,ESE,117,0.0,0.0,82,0.01,,---,0.01,VWS V14.01,2013-01-25 20:12:00,
2013-01-25 15:17:00,24.8,20.1,30.18,SSE,154,0.0,0.0,82,0.01,,---,0.01,VWS V14.01,2013-01-25 20:17:00,
2013-01-25 15:22:00,25.0,20.6,30.18,SE,136,0.0,0.0,83,0.01,,---,0.01,VWS V14.01,2013-01-25 20:22:00,
2013-01-25 15:27:00,25.0,20.6,30.18,South,172,0.0,0.0,83,0.01,,---,0.01,VWS V14.01,2013-01-25 20:27:00,
2013-01-25 15:32:00,25.1,21.0,30.18,South,174,0.0,0.0,84,0.01,,---,0.01,VWS V14.01,2013-01-25 20:32:00,
2013-01-25 15:37:00,25.3,21.4,30.18,SE,134,0.0,0.0,85,0.01,,---,0.01,VWS V14.01,2013-01-25 20:37:00,
2013-01-25 15:42:00,25.3,21.4,30.18,SSE,152,0.0,0.0,85,0.01,,---,0.01,VWS V14.01,2013-01-25 20:42:00,
2013-01-25 15:47:00,25.3,21.1,30.15,ESE,113,0.0,0.0,84,0.01,,---,0.01,VWS V14.01,2013-01-25 20:47:00,
2013-01-25 15:52:00,25.1,21.2,30.15,South,171,0.0,0.0,85,0.01,,---,0.01,VWS V14.01,2013-01-25 20:52:00,
2013-01-25 15:57:00,25.3,21.7,30.15,SW,232,0.0,0.0,86,0.01,,---,0.01,VWS V14.01,2013-01-25 20:57:00,
2013-01-25 16:02:00,25.6,22.0,30.16,SW,232,0.0,0.0,86,0.01,,---,0.01,VWS V14.01,2013-01-25 21:02:00,
2013-01-25 16:07:00,25.6,22.0,30.16,SSE,154,0.0,0.0,86,0.00,,---,0.01,VWS V14.01,2013-01-25 21:07:00,
2013-01-25 16:12:00,25.7,21.8,30.16,SSE,154,0.0,0.0,85,0.00,,---,0.01,VWS V14.01,2013-01-25 21:12:00,
2013-01-25 16:17:00,25.7,21.8,30.17,SSE,154,0.0,0.0,85,0.00,,---,0.01,VWS V14.01,2013-01-25 21:17:00,
2013-01-25 16:22:00,25.8,22.2,30.17,SSE,154,0.0,0.0,86,0.00,,---,0.01,VWS V14.01,2013-01-25 21:22:00,
2013-01-25 16:27:00,26.0,22.4,30.17,SSE,154,0.0,0.0,86,0.00,,---,0.01,VWS V14.01,2013-01-25 21:27:00,
2013-01-25 16:32:00,26.0,22.4,30.14,SSE,154,0.0,0.0,86,0.00,,---,0.01,VWS V14.01,2013-01-25 21:32:00,
2013-01-25 16:37:00,26.1,22.8,30.14,SSE,154,0.0,0.0,87,0.00,,---,0.01,VWS V14.01,2013-01-25 21:37:00,
2013-01-25 16:42:00,26.3,23.0,30.14,SSE,154,0.0,0.0,87,0.00,,---,0.01,VWS V14.01,2013-01-25 21:42:00,
2013-01-25 16:47:00,26.4,23.1,30.14,SSE,154,0.0,0.0,87,0.00,,---,0.01,VWS V14.01,2013-01-25 21:47:00,
2013-01-25 16:52:00,26.4,23.3,30.14,SSE,154,0.0,0.0,88,0.00,,---,0.01,VWS V14.01,2013-01-25 21:52:00,
2013-01-25 16:57:00,26.4,23.3,30.14,SSE,151,0.0,0.0,88,0.00,,---,0.01,VWS V14.01,2013-01-25 21:57:00,
2013-01-25 17:02:00,26.4,23.3,30.14,SSE,151,0.0,0.0,88,0.00,,---,0.01,VWS V14.01,2013-01-25 22:02:00,
2013-01-25 17:07:00,26.6,23.5,30.14,North,0,0.0,0.0,88,0.00,,---,0.01,VWS V14.01,2013-01-25 22:07:00,
2013-01-25 17:12:00,26.6,23.8,30.14,North,0,0.0,0.0,89,0.00,,---,0.01,VWS V14.01,2013-01-25 22:12:00,
2013-01-25 17:17:00,26.7,23.9,30.14,North,0,0.0,0.0,89,0.00,,---,0.01,VWS V14.01,2013-01-25 22:17:00,
2013-01-25 17:22:00,26.7,23.9,30.14,North,0,0.0,0.0,89,0.00,,---,0.01,VWS V14.01,2013-01-25 22:22:00,
2013-01-25 17:27:00,26.7,23.9,30.14,North,0,0.0,0.0,89,0.00,,---,0.01,VWS V14.01,2013-01-25 22:27:00,
2013-01-25 17:32:00,26.7,23.9,30.12,North,0,0.0,0.0,89,0.00,,---,0.01,VWS V14.01,2013-01-25 22:32:00,
2013-01-25 17:37:00,26.9,24.1,30.12,North,0,0.0,0.0,89,0.00,,---,0.01,VWS V14.01,2013-01-25 22:37:00,
2013-01-25 17:42:00,27.0,24.5,30.12,North,0,0.0,0.0,90,0.00,,---,0.01,VWS V14.01,2013-01-25 22:42:00,
2013-01-25 17:47:00,27.0,24.5,30.12,North,0,0.0,0.0,90,0.00,,---,0.01,VWS V14.01,2013-01-25 22:47:00,
2013-01-25 17:52:00,27.2,24.7,30.12,North,0,0.0,0.0,90,0.00,,---,0.01,VWS V14.01,2013-01-25 22:52:00,
2013-01-25 17:57:00,27.2,24.7,30.12,North,0,0.0,0.0,90,0.00,,---,0.01,VWS V14.01,2013-01-25 22:57:00,
2013-01-25 18:02:00,27.0,24.2,30.13,North,0,0.0,0.0,89,0.00,,---,0.01,VWS V14.01,2013-01-25 23:02:00,
2013-01-25 18:07:00,27.2,24.7,30.13,North,0,0.0,0.0,90,0.00,,---,0.01,VWS V14.01,2013-01-25 23:07:00,
2013-01-25 18:12:00,27.2,24.7,30.13,North,0,0.0,0.0,90,0.00,,---,0.01,VWS V14.01,2013-01-25 23:12:00,
2013-01-25 18:17:00,27.2,24.7,30.13,North,0,0.0,0.0,90,0.00,,---,0.01,VWS V14.01,2013-01-25 23:17:00,
2013-01-25 18:22:00,27.3,24.8,30.13,North,0,0.0,0.0,90,0.00,,---,0.01,VWS V14.01,2013-01-25 23:22:00,
2013-01-25 18:27:00,27.3,24.8,30.13,North,0,0.0,0.0,90,0.00,,---,0.01,VWS V14.01,2013-01-25 23:27:00,
2013-01-25 18:32:00,27.5,25.0,30.14,North,0,0.0,0.0,90,0.00,,---,0.01,VWS V14.01,2013-01-25 23:32:00,
2013-01-25 18:37:00,27.5,25.0,30.14,North,0,0.0,0.0,90,0.00,,---,0.01,VWS V14.01,2013-01-25 23:37:00,
2013-01-25 18:42:00,27.5,25.0,30.14,North,0,0.0,0.0,90,0.00,,---,0.01,VWS V14.01,2013-01-25 23:42:00,
2013-01-25 18:47:00,27.5,25.0,30.13,North,1,0.0,0.0,90,0.00,,---,0.01,VWS V14.01,2013-01-25 23:47:00,
2013-01-25 18:52:00,27.5,24.7,30.13,North,1,0.0,0.0,89,0.00,,---,0.01,VWS V14.01,2013-01-25 23:52:00,
2013-01-25 18:57:00,27.5,24.7,30.13,North,1,0.0,0.0,89,0.00,,---,0.01,VWS V14.01,2013-01-25 23:57:00,
2013-01-25 19:02:00,27.3,24.5,30.12,NNE,16,0.0,0.0,89,0.00,,---,0.01,VWS V14.01,2013-01-26 00:02:00,
2013-01-25 19:07:00,27.3,24.5,30.12,NNE,23,0.0,0.0,89,0.00,,---,0.01,VWS V14.01,2013-01-26 00:07:00,
2013-01-25 19:12:00,27.3,24.5,30.12,NNE,23,0.0,0.0,89,0.00,,---,0.01,VWS V14.01,2013-01-26 00:12:00,
2013-01-25 19:17:00,27.3,24.5,30.11,NNE,23,0.0,0.0,89,0.00,,---,0.01,VWS V14.01,2013-01-26 00:17:00,
2013-01-25 19:22:00,27.3,24.8,30.11,NNE,23,0.0,0.0,90,0.00,,---,0.01,VWS V14.01,2013-01-26 00:22:00,
2013-01-25 19:27:00,27.3,24.5,30.11,NNE,23,0.0,0.0,89,0.00,,---,0.01,VWS V14.01,2013-01-26 00:27:00,
2013-01-25 19:32:00,27.3,24.5,30.10,NNE,23,0.0,0.0,89,0.00,,---,0.01,VWS V14.01,2013-01-26 00:32:00,
2013-01-25 19:37:00,27.3,24.8,30.10,NNE,23,0.0,0.0,90,0.00,,---,0.01,VWS V14.01,2013-01-26 00:37:00,
2013-01-25 19:42:00,27.3,24.8,30.10,NNE,23,0.0,0.0,90,0.00,,---,0.01,VWS V14.01,2013-01-26 00:42:00,
2013-01-25 19:47:00,27.5,25.0,30.11,NNE,23,0.0,0.0,90,0.00,,---,0.01,VWS V14.01,2013-01-26 00:47:00,
2013-01-25 19:52:00,27.5,25.0,30.11,NNE,23,0.0,0.0,90,0.00,,---,0.01,VWS V14.01,2013-01-26 00:52:00,
2013-01-25 19:57:00,27.5,25.0,30.11,NNE,23,0.0,0.0,90,0.00,,---,0.01,VWS V14.01,2013-01-26 00:57:00,
2013-01-25 20:02:00,27.3,24.8,30.10,NNE,23,0.0,0.0,90,0.00,,---,0.01,VWS V14.01,2013-01-26 01:02:00,
2013-01-25 20:07:00,27.3,24.8,30.10,NNE,23,0.0,0.0,90,0.00,,---,0.01,VWS V14.01,2013-01-26 01:07:00,
2013-01-25 20:12:00,27.3,24.8,30.10,NNE,23,0.0,0.0,90,0.00,,---,0.01,VWS V14.01,2013-01-26 01:12:00,
2013-01-25 20:17:00,27.5,25.0,30.09,NE,44,0.0,0.0,90,0.00,,---,0.01,VWS V14.01,2013-01-26 01:17:00,
2013-01-25 20:22:00,27.5,25.0,30.09,NE,44,0.0,0.0,90,0.00,,---,0.01,VWS V14.01,2013-01-26 01:22:00,
2013-01-25 20:27:00,27.5,25.0,30.09,South,174,0.0,0.0,90,0.00,,---,0.01,VWS V14.01,2013-01-26 01:27:00,
2013-01-25 20:32:00,27.5,25.0,30.08,SSE,151,0.0,0.0,90,0.00,,---,0.01,VWS V14.01,2013-01-26 01:32:00,
2013-01-25 20:37:00,27.5,25.0,30.08,SE,145,0.0,0.0,90,0.00,,---,0.01,VWS V14.01,2013-01-26 01:37:00,
2013-01-25 20:42:00,27.5,25.0,30.08,SE,145,0.0,0.0,90,0.00,,---,0.01,VWS V14.01,2013-01-26 01:42:00,
2013-01-25 20:47:00,27.5,25.0,30.07,SE,143,0.0,0.0,90,0.00,,---,0.01,VWS V14.01,2013-01-26 01:47:00,
2013-01-25 20:52:00,27.5,25.0,30.07,SE,144,0.0,0.0,90,0.00,,---,0.01,VWS V14.01,2013-01-26 01:52:00,
2013-01-25 20:57:00,27.5,25.0,30.07,SE,144,0.0,0.0,90,0.00,,---,0.01,VWS V14.01,2013-01-26 01:57:00,
2013-01-25 21:02:00,27.5,25.0,30.08,SE,144,0.0,0.0,90,0.00,,---,0.01,VWS V14.01,2013-01-26 02:02:00,
2013-01-25 21:07:00,27.5,25.0,30.08,SE,140,0.0,0.0,90,0.00,,---,0.01,VWS V14.01,2013-01-26 02:07:00,
2013-01-25 21:12:00,27.5,25.0,30.08,NNW,332,0.0,0.0,90,0.00,,---,0.01,VWS V14.01,2013-01-26 02:12:00,
2013-01-25 21:17:00,27.5,25.0,30.08,NNW,336,0.0,0.0,90,0.00,,---,0.01,VWS V14.01,2013-01-26 02:17:00,
2013-01-25 21:22:00,27.5,25.0,30.08,NNW,336,0.0,0.0,90,0.00,,---,0.01,VWS V14.01,2013-01-26 02:22:00,
2013-01-25 21:27:00,27.5,25.0,30.08,NNW,336,0.0,0.0,90,0.00,,---,0.01,VWS V14.01,2013-01-26 02:27:00,
2013-01-25 21:32:00,27.5,25.0,30.09,NNW,336,0.0,0.0,90,0.00,,---,0.01,VWS V14.01,2013-01-26 02:32:00,
2013-01-25 21:37:00,27.5,25.0,30.09,NNW,336,0.0,0.0,90,0.00,,---,0.01,VWS V14.01,2013-01-26 02:37:00,
2013-01-25 21:42:00,27.5,25.0,30.09,NNW,336,0.0,0.0,90,0.00,,---,0.01,VWS V14.01,2013-01-26 02:42:00,
2013-01-25 21:47:00,27.5,25.0,30.10,NNW,336,0.0,0.0,90,0.00,,---,0.01,VWS V14.01,2013-01-26 02:47:00,
2013-01-25 21:52:00,27.5,25.0,30.10,NNW,336,0.0,0.0,90,0.00,,---,0.01,VWS V14.01,2013-01-26 02:52:00,
2013-01-25 21:57:00,27.5,25.0,30.10,NNW,336,0.0,0.0,90,0.00,,---,0.01,VWS V14.01,2013-01-26 02:57:00,
2013-01-25 22:02:00,27.5,25.0,30.09,NNW,336,0.0,0.0,90,0.00,,---,0.01,VWS V14.01,2013-01-26 03:02:00,
2013-01-25 22:07:00,27.5,25.0,30.09,NNW,336,0.0,0.0,90,0.00,,---,0.01,VWS V14.01,2013-01-26 03:07:00,
2013-01-25 22:12:00,27.5,25.0,30.09,NNW,336,0.0,0.0,90,0.00,,---,0.01,VWS V14.01,2013-01-26 03:12:00,
2013-01-25 22:17:00,27.5,25.0,30.09,NNW,336,0.0,0.0,90,0.00,,---,0.01,VWS V14.01,2013-01-26 03:17:00,
2013-01-25 22:22:00,27.5,25.0,30.09,NNW,336,0.0,0.0,90,0.00,,---,0.01,VWS V14.01,2013-01-26 03:22:00,
2013-01-25 22:27:00,27.5,25.0,30.09,NNW,336,0.0,0.0,90,0.00,,---,0.01,VWS V14.01,2013-01-26 03:27:00,
2013-01-25 22:32:00,27.5,25.0,30.08,NNW,336,0.0,0.0,90,0.00,,---,0.01,VWS V14.01,2013-01-26 03:32:00,
2013-01-25 22:37:00,27.5,25.0,30.08,NNW,336,0.0,0.0,90,0.00,,---,0.01,VWS V14.01,2013-01-26 03:37:00,
2013-01-25 22:42:00,27.5,25.0,30.08,NNW,336,0.0,0.0,90,0.00,,---,0.01,VWS V14.01,2013-01-26 03:42:00,
2013-01-25 22:47:00,27.5,25.0,30.08,NNW,336,0.0,0.0,90,0.00,,---,0.01,VWS V14.01,2013-01-26 03:47:00,
2013-01-25 22:52:00,27.5,25.0,30.08,NNW,336,0.0,0.0,90,0.00,,---,0.01,VWS V14.01,2013-01-26 03:52:00,
2013-01-25 22:57:00,27.3,24.8,30.08,NNW,336,0.0,0.0,90,0.00,,---,0.01,VWS V14.01,2013-01-26 03:57:00,
2013-01-25 23:02:00,27.3,24.8,30.08,NNW,336,0.0,0.0,90,0.00,,---,0.01,VWS V14.01,2013-01-26 04:02:00,
2013-01-25 23:07:00,27.3,24.8,30.08,NNW,336,0.0,0.0,90,0.00,,---,0.01,VWS V14.01,2013-01-26 04:07:00,
2013-01-25 23:12:00,27.3,24.8,30.08,NNW,336,0.0,0.0,90,0.00,,---,0.01,VWS V14.01,2013-01-26 04:12:00,
2013-01-25 23:17:00,27.3,24.8,30.08,NNW,336,0.0,0.0,90,0.00,,---,0.01,VWS V14.01,2013-01-26 04:17:00,
2013-01-25 23:22:00,27.2,24.7,30.08,NNW,336,0.0,0.0,90,0.00,,---,0.01,VWS V14.01,2013-01-26 04:22:00,
2013-01-25 23:27:00,27.3,24.8,30.08,NNW,336,0.0,0.0,90,0.00,,---,0.01,VWS V14.01,2013-01-26 04:27:00,
2013-01-25 23:32:00,27.3,24.8,30.08,NNW,336,0.0,0.0,90,0.00,,---,0.01,VWS V14.01,2013-01-26 04:32:00,
2013-01-25 23:37:00,27.3,24.8,30.08,NNW,336,0.0,0.0,90,0.00,,---,0.01,VWS V14.01,2013-01-26 04:37:00,
2013-01-25 23:42:00,27.3,24.8,30.08,NNW,336,0.0,0.0,90,0.00,,---,0.01,VWS V14.01,2013-01-26 04:42:00,
2013-01-25 23:47:00,27.3,24.8,30.08,NNW,336,0.0,0.0,90,0.00,,---,0.01,VWS V14.01,2013-01-26 04:47:00,
2013-01-25 23:52:00,27.3,24.8,30.08,NNW,336,0.0,0.0,90,0.00,,---,0.01,VWS V14.01,2013-01-26 04:52:00,
2013-01-25 23:57:00,27.2,24.7,30.08,NNW,336,0.0,0.0,90,0.00,,---,0.01,VWS V14.01,2013-01-26 04:57:00,